Regional Weather Roundup
Issued by NWS

Home | Current Version | Previous Version | Graphics & Text | Print | Product List | Glossary On
Versions: 1 2 3 4 5 6 7 8 9 10 11 12 13 14 15 16 17 18 19 20 21 22 23 24 25 26 27 28 29 30 31 32 33 34 35 36 37 38 39 40 41 42 43 44 45 46 47 48 49 50
000
ASUS45 KBOU 270807
RWRCO

WEATHER ROUNDUP FOR COLORADO
NATIONAL WEATHER SERVICE DENVER/BOULDER CO
200 AM MDT FRI MAR 27 2015

NOTE: "FAIR" INDICATES FEW OR NO CLOUDS BELOW 12000 FEET WITH NO
SIGNIFICANT WEATHER AND/OR OBSTRUCTIONS TO VISIBILITY.

COZ001>005-013-030-031-270900-
...NORTHWEST COLORADO...

CITY           SKY/WX    TMP DP  RH WIND       PRES   REMARKS
CRAIG          CLEAR     32  26  78 CALM      30.33R
HAYDEN         CLEAR     37  25  60 CALM      30.33R
MEEKER         CLEAR     32  25  75 NE7       30.34S WCI  26
MOUNT WERNER   NOT AVBL
STEAMBOAT SPGS CLEAR     37  27  68 E5        30.33S
WALDEN         PTCLDY    34  27  75 N3        30.31S
$$

COZ006>008-011-270900-
...WEST CENTRAL VALLEYS...

CITY           SKY/WX    TMP DP  RH WIND       PRES   REMARKS
GRAND JUNCTION CLEAR     36  19  50 E6        30.28S
MONTROSE       PTCLDY    38  24  57 SE7       30.34S
EAGLE          CLEAR     37  27  65 E8        30.35S
RIFLE          CLEAR     36  23  59 CALM      30.33R
DELTA          PTCLDY    42  23  47 E6        30.32S
NUCLA          PTCLDY    37  21  52 E9        30.37S
$$

COZ017>023-064>068-270900-
...SOUTHWEST COLORADO...

CITY           SKY/WX    TMP DP  RH WIND       PRES   REMARKS
DURANGO        CLEAR     34  21  59 CALM      30.31R
CORTEZ         CLEAR     31  18  58 E7        30.33S WCI  24
PAGOSA SPRINGS CLEAR     33  19  57 CALM      30.35S
TELLURIDE      NOT AVBL
WOLF CREEK PAS NOT AVBL
$$

COZ009-010-012-014-032>034-037-058>063-270900-
...CENTRAL COLORADO...

CITY           SKY/WX    TMP DP  RH WIND       PRES   REMARKS
ASPEN          MOCLDY    34  25  69 SW5       30.35S WCI  30
BUENA VISTA    CLEAR     32  23  67 W9        30.30S WCI  25
COPPER MTN     CLOUDY    30  19  64 W14       30.43S WCI  20
BERTHOUD PASS  NOT AVBL
COTTONWOOD PAS CLEAR     39  19  45 NW15G26   30.34R
GUNNISON       CLEAR     30  19  64 N3        30.39S
KREMMLING      PTCLDY    32  27  80 CALM      30.34R
LEADVILLE      PTCLDY    31  18  58 NW13G21   30.36F WCI  21
SALIDA         CLEAR     42  21  42 NW9       30.36S
SUNLIGHT       NOT AVBL
WILKERSON PASS PTCLDY    28  19  69 W7        30.38F WCI  21
$$

COZ069>075-270900-
...SAN LUIS VALLEY/SANGRE DE CRISTO MOUNTAINS...

CITY           SKY/WX    TMP DP  RH WIND       PRES   REMARKS
ALAMOSA        CLEAR     34  17  50 N3        30.31R
LA VETA PASS   PTCLDY    32  18  55 S7        30.35R WCI  26
SAGUACHE       NOT AVBL
$$

COZ035-036-038>040-270900-
...NORTHERN COLORADO FRONT RANGE...

CITY           SKY/WX    TMP DP  RH WIND       PRES   REMARKS
DENVER INTL AP MOCLDY    41  30  65 S12       30.16F
DMNS CITY PARK   N/A     43  28  54 W5        30.17F
AURORA         MOCLDY    40  31  69 S9        30.17F
FRONT RANGE AP NOT AVBL
ERIE MUNI ARPT PTCLDY    39  30  70 CALM      30.17F
BOULDER MUN AP PTCLDY    43  28  56 S3        30.16F
CENTENNIAL     PTCLDY    43  31  62 W8        30.18S
BROOMFIELD     PTCLDY    43  27  52 CALM      30.18F
FORT COLLINS   PTCLDY    43  27  52 E6        30.19F
LONGMONT       MOCLDY    40  30  69 W5        30.19F
$$

COZ041-046-047-076>085-087-088-270900-
...PIKES PEAK/PALMER DIVIDE AND SOUTHERN FOOTHILLS...

CITY           SKY/WX    TMP DP  RH WIND       PRES   REMARKS
COLO. SPRINGS  PTCLDY    41  23  48 NE8       30.21S
A. F. ACADEMY  PTCLDY    35  27  73 NE6       30.20F WCI  30
ELLICOTT       PTCLDY   N/A N/A N/A SE8       30.21S
FALCON         CLOUDY    40  23  51 CALM      30.24R
FORT CARSON    CLEAR     37  26  64 N5        30.19S
LIMON          CLOUDY    41  30  65 S7        30.18F
MONUMENT HILL  NOT AVBL
TRINIDAD       CLEAR     41  26  55 W12       30.20F
$$

COZ042>045-048>051-090-091-270900-
...NORTHEAST COLORADO...

CITY           SKY/WX    TMP DP  RH WIND       PRES   REMARKS
GREELEY ARPT   MOCLDY    43  28  56 NW5       30.16F
AKRON          CLOUDY    39  33  79 S6        30.15F
BURLINGTON     MOCLDY    38  30  73 E5        30.17S
WRAY           CLOUDY    40  30  67 E3        30.18S
STERLING       CLOUDY    41  34  75 E3        30.15S
HOLYOKE        NOT AVBL
FORT MORGAN    CLOUDY    42  32  68 W5        30.16F
$$

COZ086-089-092>099-270900-
...SOUTHEAST COLORADO...

CITY           SKY/WX    TMP DP  RH WIND       PRES   REMARKS
PUEBLO         CLEAR     38  30  73 CALM      30.17F
LA JUNTA       PTCLDY    39  25  57 NE6       30.20R
LAMAR          PTCLDY    32  28  85 SW3       30.17S
SPRINGFIELD      N/A     35  30  82 NW3       30.19R
$$



USA.gov is the U.S. government's official web portal to all federal, state and local government web resources and services.